Location: Austin
(30.3000°N, 97.7500°W)
Time: 00:31:19
(UTC-05:00)

Cosmos 2061 Rocket - Pass Details

Date: 12 February 2024
Orbit: 964 x 1013 km, 82.9° (Epoch: 22 June)

Event Time Altitude Azimuth Distance (km) Brightness Sun altitude
Rises 19:00:16 0° 166° (SSE) 3,696 7.0 -10.0°
Reaches altitude 10° 19:02:55 10° 160° (SSE) 2,743 6.3 -10.6°
Maximum altitude 19:08:49 44° 90° (E) 1,331 4.3 -11.8°
Drops below altitude 10° 19:14:40 10° 21° (NNE) 2,725 6.1 -13.1°
Sets 19:17:16 0° 15° (NNE) 3,669 6.8 -13.6°
